Home > Weather > Pueblo > Past weeks

Flag for USA Past Weather in Pueblo, Colorado, USA — Yesterday and Last 2 Weeks

Now
69 °F

Clear.


Feels Like: 69 °F
Forecast: 61 / 90 °F
Wind: No wind

Location: Pueblo Memorial Airport

Current Time: Jun 25, 2016 at 10:41:18 PM

Latest Report: Jun 25, 2016 at 9:53 PM


Visibility: 10 mi

Pressure: 29.95 "Hg (25.36 "Hg at 1430m altitude)

Humidity: 73%

Dew Point: 60 °F

Location of PuebloLocation

Past Weather in Pueblo — Graph

°F

Pueblo Temperature Yesterday

Maximum temperature yesterday: 97 °F (at 2:53 PM)
Minimum temperature yesterday: 60 °F (at 3:53 AM)
Average temperature yesterday: 77 °F

High & Low Weather Summary for the Past Weeks

 TemperatureHumidityPressure
High104 °F (Jun 21, 2:53 PM)90% (Jun 13, 5:53 AM)30.11 "Hg (Jun 13, 5:53 AM)
Low51 °F (Jun 16, 5:53 AM)5% (Jun 16, 3:53 PM)29.61 "Hg (Jun 15, 7:53 PM)
Average79 °F41%29.85 "Hg
* Reported Jun 10 8:02 PM — Jun 25 8:53 PM, Pueblo, Weather by CustomWeather, © 2016

Note: Actual official high and low records may vary slightly from our data, if they occured in-between our weather recording intervals... More about our weather records

Advertising

Pueblo Weather History for the Previous 24 Hours

Scroll right to see more
 ConditionsComfort  
Time TempWeatherWind HumidityBarometerVisibility
8:53 PM
Sat, Jun 25
68 °FSunny.8 mph70%29.94 "Hg10 mi
7:53 PM71 °FPartly sunny.15 mph63%29.89 "Hg10 mi
6:53 PM73 °FScattered clouds.6 mph57%29.90 "Hg10 mi
5:53 PM69 °FSunny.16 mph66%29.90 "Hg10 mi
4:55 PM64 °FStrong thunderstorms. More clouds than sun.32 mph78%30.05 "Hg1 mi
4:02 PM91 °FThundershowers. Sunny.12 mph28%30.00 "Hg10 mi
3:53 PM92 °FSunny.10 mph27%29.78 "Hg10 mi
2:53 PM92 °FSunny.17 mph28%29.77 "Hg10 mi
1:53 PM96 °FPassing clouds.16 mph23%29.77 "Hg10 mi
12:53 PM96 °FSunny.13 mph18%29.79 "Hg10 mi
11:53 AM93 °FSunny.13 mph20%29.80 "Hg10 mi
10:53 AM90 °FSunny.9 mph24%29.82 "Hg10 mi
9:53 AM89 °FSunny.9 mph26%29.81 "Hg10 mi
8:53 AM81 °FSunny.7 mph35%29.82 "Hg10 mi
7:53 AM77 °FSunny.8 mph45%29.80 "Hg10 mi
6:53 AM70 °FSunny.No wind57%29.80 "Hg10 mi
5:53 AM63 °FClear.No wind70%29.80 "Hg10 mi
4:53 AM65 °FClear.7 mph63%29.77 "Hg10 mi
3:53 AM65 °FClear.6 mph70%29.76 "Hg10 mi
2:53 AM71 °FClear.10 mph51%29.73 "Hg10 mi
1:53 AM71 °FClear.No wind57%29.75 "Hg10 mi
12:53 AM70 °FClear.7 mph64%29.76 "Hg10 mi
11:53 PM
Fri, Jun 24
72 °FClear.3 mph61%29.77 "Hg10 mi
10:53 PM74 °FClear.6 mph52%29.77 "Hg10 mi
Weather by CustomWeather, © 2016

See weather overviewHow to use our weather pages